{"data":{"norad_id":63506,"epoch":"2026-05-24T17:19:41.774592Z","epoch_age_seconds":92281,"freshness":"FRESH","line1":"1 63506U 25071P   26144.72201128  .00011988  00000+0  41622-3 0  9999","line2":"2 63506  53.1594 146.5541 0001058  86.8704 273.2418 15.30199163 64366","mean_motion":15.30199163,"eccentricity":0.0001058,"inclination_deg":53.1594,"raan_deg":146.5541,"arg_perigee_deg":86.8704,"mean_anomaly_deg":273.2418,"bstar":0.00041622,"rev_number":6436,"period_min":94.105397180903,"perigee_km":474.49248363824,"apogee_km":475.94265346495,"semimajor_km":6853.3545685516,"source":"CELESTRAK","updated_at":"2026-05-25T13:38:20.014331Z"}}